DW6597 Ellesmere UK current weather conditions

sailwx.info

Wind from 076

Air temperature 12.8° C
Dewpoint 12.8° C

Last reported at 2019-Jun-27 07:01 UTC.
Time now 2019-Jun-27 08:04 UTC

Location: N 54°30' W 002°30'.
View on Google Maps.

See reports from other nearby stations

  
Tides and Currents Weather Stations Pressure Air Temp Water Temp Dewpoint Dewpoint Depression Visibility Wind Speed Wind Dir Waves Ship Positions
date/time (UTC)wind fromknots sea level pressurealtimeterstation pressurevisibilityair tempwater tempwave heightnotes
2019-Jun-27 07:01 076 12.8
2019-Jun-27 06:46 090 12.2
2019-Jun-27 06:31 071 11.7
2019-Jun-27 06:16 017 11.1
2019-Jun-27 06:01 071 10.6
2019-Jun-27 05:46 032 10.6
2019-Jun-27 05:30 030 10.6
2019-Jun-27 05:15 030 10.6
2019-Jun-27 05:00 030 10.0
2019-Jun-27 04:00 030 10.6
2019-Jun-27 03:47 030 10.6
2019-Jun-27 03:31 030 10.6
2019-Jun-27 03:16 026 11.1
2019-Jun-27 03:01 057 11.1
2019-Jun-27 02:46 047 11.1
2019-Jun-27 02:31 021 11.1
2019-Jun-27 02:16 021 11.1
2019-Jun-27 02:00 005 11.1
2019-Jun-27 01:45 033 11.1
2019-Jun-27 01:30 026 11.7
2019-Jun-27 01:15 027 0 gusting 6 11.7
2019-Jun-27 01:00 044 11.7
2019-Jun-27 00:45 086 11.7
2019-Jun-27 00:32 041 11.7
2019-Jun-27 00:16 026 11.7
2019-Jun-27 00:01 026 12.2
2019-Jun-26 23:46 026 12.2
2019-Jun-26 23:31 026 12.2
2019-Jun-26 23:16 021 12.2
2019-Jun-26 23:01 021 12.2
2019-Jun-26 12:01 024 16.1
2019-Jun-26 11:46 017 0 gusting 4 15.6
2019-Jun-26 11:31 030 0 gusting 6 15.6
2019-Jun-26 11:16 026 15.6
2019-Jun-26 11:01 017 15.6
2019-Jun-26 10:45 336 15.0
2019-Jun-26 10:30 033 15.0
2019-Jun-26 10:15 011 14.4
2019-Jun-26 10:00 011 14.4
2019-Jun-26 09:45 027 14.4
2019-Jun-26 09:30 031 13.9
2019-Jun-26 09:17 035 13.9
2019-Jun-26 09:02 355 13.9
2019-Jun-26 08:46 022 13.9
2019-Jun-26 08:31 024 13.3
2019-Jun-26 08:16 022 13.3
2019-Jun-26 08:01 027 13.9
2019-Jun-26 05:01 330 13.3
2019-Jun-26 04:46 330 13.3
2019-Jun-26 04:31 330 13.3
2019-Jun-26 04:16 330 13.3
2019-Jun-26 04:00 330 13.3
2019-Jun-26 03:46 330 13.3
2019-Jun-26 03:30 330 13.3
2019-Jun-26 03:15 330 13.3
2019-Jun-26 03:00 330 13.3
2019-Jun-26 02:45 330 13.3
2019-Jun-26 02:32 330 13.3
2019-Jun-26 02:17 330 13.3
2019-Jun-26 02:03 330 13.3
2019-Jun-26 01:46 330 13.3
2019-Jun-26 01:31 330 13.3
2019-Jun-26 01:16 330 13.9
2019-Jun-26 01:01 330 13.9
2019-Jun-26 00:47 330 13.9
2019-Jun-26 00:30 330 13.9
2019-Jun-26 00:15 330 13.9
2019-Jun-26 00:00 330 13.9
2019-Jun-25 23:45 330 13.9
2019-Jun-25 23:30 330 13.9
2019-Jun-25 23:15 330 13.9
2019-Jun-25 23:02 330 14.4
2019-Jun-25 22:46 330 14.4
2019-Jun-25 22:31 330 14.4
2019-Jun-25 22:16 330 14.4
2019-Jun-25 22:01 330 14.4
2019-Jun-25 21:45 330 14.4
2019-Jun-25 21:31 330 14.4
2019-Jun-25 21:00 330 15.0
2019-Jun-25 20:45 330 15.0
2019-Jun-25 20:30 330 15.0
2019-Jun-25 20:15 330 15.0
2019-Jun-25 20:00 330 15.6
2019-Jun-25 19:45 330 16.1
2019-Jun-25 19:31 330 16.1
2019-Jun-25 19:17 330 16.7
2019-Jun-25 19:02 330 16.7
2019-Jun-25 18:46 330 16.7
2019-Jun-25 18:31 330 17.2
2019-Jun-25 18:16 330 17.2
2019-Jun-25 18:00 318 17.8
2019-Jun-25 17:45 296 18.3
2019-Jun-25 17:30 295 18.3
2019-Jun-25 17:15 302 18.3
2019-Jun-25 17:00 302 18.3
2019-Jun-25 16:45 242 18.3
2019-Jun-25 16:30 242 17.8
2019-Jun-25 16:15 242 17.8
2019-Jun-25 16:02 242 17.8
2019-Jun-25 15:46 242 17.8
2019-Jun-25 15:31 294 17.8
2019-Jun-25 15:18 294 17.8
2019-Jun-25 09:02 267 16.1
2019-Jun-25 08:46 269 15.6
2019-Jun-25 08:31 269 15.6
2019-Jun-25 08:16 269 15.6
2019-Jun-25 08:01 262 15.6